Regional Weather Roundup
Issued by NWS

Home | Current Version | Previous Version | Graphics & Text | Print | Product List | Glossary On
Versions: 1 2 3 4 5 6 7 8 9 10 11 12 13 14 15 16 17 18 19 20 21 22 23 24 25 26 27 28 29 30 31 32 33 34 35 36 37 38 39 40 41 42 43 44 45 46 47 48 49 50
000
ASUS43 KLOT 050603
RWRIL

ILLINOIS REGIONAL WEATHER ROUNDUP
NATIONAL WEATHER SERVICE CHICAGO/ROMEOVILLE IL
100 AM CDT THU MAY 05 2016

NOTE: "FAIR" INDICATES FEW OR NO CLOUDS BELOW 12,000 FEET WITH NO
SIGNIFICANT WEATHER AND/OR OBSTRUCTIONS TO VISIBILITY.

* THESE STATIONS ARE NOT UNDER NWS QUALITY CONTROL. THEY ALSO MAY NOT
  REPORT WEATHER SUCH AS PRECIPITATION OR FOG.

ILZ001-002-007-009-015-016-024-050700-
NORTHWEST ILLINOIS

CITY           SKY/WX    TMP DP  RH WIND       PRES   REMARKS
MOLINE         CLEAR     51  34  52 NE6       29.92R
6HR MIN TEMP:  51; 6HR MAX TEMP:  62;

STERLING*      CLEAR     41  37  87 NE6       29.94R
$$

ILZ003-004-008-010-011-017-018-050700-
NORTH CENTRAL ILLINOIS

CITY           SKY/WX    TMP DP  RH WIND       PRES   REMARKS
ROCKFORD       CLEAR     40  35  83 N6        29.95R
6HR MIN TEMP:  40; 6HR MAX TEMP:  57;

FREEPORT*      CLEAR     41  37  86 CALM      29.96R
DE KALB*       CLEAR     40  36  86 N9        29.92R
$$

ILZ005-006-012>014-019>023-050700-
NORTHEAST ILLINOIS

CITY           SKY/WX    TMP DP  RH WIND       PRES   REMARKS
CHICAGO-OHARE  MOCLDY    43  33  68 N22G32    29.88S
6HR MIN TEMP:  42; 6HR MAX TEMP:  45;

CHICAGO-MIDWAY CLOUDY    44  32  62 N20G31    29.87S
6HR MIN TEMP:  44; 6HR MAX TEMP:  47;

AURORA         CLEAR     38  34  85 N7        29.90S WCI  33
6HR MIN TEMP:  38; 6HR MAX TEMP:  54;

LANSING*       CLOUDY    43  34  72 N17G29    29.86S
WAUKEGAN       CLOUDY    42  33  70 N14G24    29.89S
6HR MIN TEMP:  41; 6HR MAX TEMP:  43;

DUPAGE AIRPORT CLEAR     39  32  76 N12       29.89S WCI  32
6HR MIN TEMP:  38; 6HR MAX TEMP:  52;

WHEELING       MOCLDY    43  33  68 N15G29    29.90S
6HR MIN TEMP:  42; 6HR MAX TEMP:  45;

NORTHERLY ISL    N/A     43  34  70 N24         N/A
NORTHERLY ISL    N/A     43  34  70 N24         N/A
$$

LMZ740>746-050700-
SOUTHERN LAKE MICHIGAN

STATION/POSITION SKY/WX   TEMP    WIND        PRES    VSBY  WAVE
                          AIR SEA DIR/SP/G                  HT/PER
                          (F)     (DEG/KT/KT) (MB)    (MI)  (FT/S)
SOUTHERN BUOY              40 40   10/ 27/ 35 1010.2         10/ 8
WILMETTE HARBOR            42 43   30/ 23/ 29   N/A           8/ 7
HARRISON CRIB              43     360/ 30/ 36   N/A
BURNHAM HARBOR             43     330/ 20/ 28   N/A
CALUMET HARBOR             43     340/ 21/ 32 1011.0R
BURNS HARBOR               42     360/ 27     1010.5R
MICHIGAN CITY              41     330/ 32/ 35   N/A
ST. JOSEPH                 42 47                N/A          10/ 8
$$

ILZ025>027-034>036-040-047-049-050-058-095>099-050700-
WEST-CENTRAL ILLINOIS

CITY           SKY/WX    TMP DP  RH WIND       PRES   REMARKS
QUINCY         PTCLDY    46  37  71 NW8       29.92R
MACOMB*        CLEAR     46  37  70 N12       29.92S
$$

ILZ028>032-037-038-041>044-048-051>054-059>061-050700-
CENTRAL ILLINOIS

CITY           SKY/WX    TMP DP  RH WIND       PRES   REMARKS
BLOOMINGTON    CLEAR     41  40  96 NE7       29.90R
DECATUR        CLEAR     48  40  73 N12       29.86R
PEORIA         CLEAR     48  38  68 NE12      29.90R
6HR MIN TEMP:  48; 6HR MAX TEMP:  61;

SPRINGFIELD    CLEAR     50  36  58 NW7       29.86F
6HR MIN TEMP:  48; 6HR MAX TEMP:  62;

TAYLORVILLE    NOT AVBL
$$

ILZ033-039-045-046-055>057-062-063-050700-
EAST-CENTRAL ILLINOIS

CITY           SKY/WX    TMP DP  RH WIND       PRES   REMARKS
CHAMPAIGN      PTCLDY    44  38  79 N12       29.86R
MATTOON        CLEAR     45  41  86 N7        29.84R
$$

ILZ079-100>102-050700-
SOUTHWEST ILLINOIS

CITY           SKY/WX    TMP DP  RH WIND       PRES   REMARKS
ALTON          CLEAR     47  39  75 NW7       29.88F
BELLEVILLE     PTCLDY    49  43  81 NW1       29.86F
CAHOKIA*       PTCLDY    55  38  52 W8        29.88F
SPARTA*        MOCLDY    50  39  65 CALM      29.89F
$$

ILZ064>066-069>071-074>076-080>082-084>086-088>090-092>094-050700-
SOUTH-CENTRAL ILLINOIS

CITY           SKY/WX    TMP DP  RH WIND       PRES   REMARKS
CARBONDALE     PTCLDY    45  41  86 SW3       29.87F
6HR MIN TEMP:  45; 6HR MAX TEMP:  63;

MT. VERNON     CLEAR     43  37  81 CALM      29.86S
SALEM*         CLEAR     48  43  82 W6        29.85F
$$

ILZ067-068-072-073-078-083-087-091-050700-
SOUTHEAST ILLINOIS

CITY           SKY/WX    TMP DP  RH WIND       PRES   REMARKS
LAWRENCEVILLE  CLOUDY    50  45  83 NW6       29.82S
FLORA*         CLOUDY    49  43  79 W6        29.84F
HARRISBURG*    CLEAR     46  43  89 CALM      29.86F
ROBINSON*      CLOUDY    48  46  91 W5        29.84S
$$

ABBREVIATIONS USED IN REMARKS
   TC - TEMPERATURE IN CELSIUS
  WCI - WIND CHILL INDEX
   HX - HEAT INDEX
  VSB - VISIBILITY
$$




USA.gov is the U.S. government's official web portal to all federal, state and local government web resources and services.